This is the latest recevied weather packets stored in our database for station/object KC5DP. If no packets are shown the sender has not sent any weather packets the latest 10 day(s).
| Time | Temp. | Humidity | Pressure | Rain* | Wind** | Luminosity | Snow |
|---|---|---|---|---|---|---|---|
| 1777753968 | 21.67° C | 40% | 1015.2 hPa | 0 mm | - | 608 W/m² | - |
| 1777753662 | 22.22° C | 42% | 1015.4 hPa | 0 mm | - | 641 W/m² | - |
| 1777753360 | 22.22° C | 39% | 1015.5 hPa | 0 mm | - | 654 W/m² | - |
| 1777753057 | 21.67° C | 43% | 1015.4 hPa | 0 mm | - | 664 W/m² | - |
| 1777752753 | 22.22° C | 41% | 1015.6 hPa | 0 mm | - | 675 W/m² | - |
| 1777752450 | 22.78° C | 41% | 1015.5 hPa | 0 mm | - | 685 W/m² | - |
| 1777752146 | 22.22° C | 41% | 1015.5 hPa | 0 mm | - | 694 W/m² | - |
| 1777751845 | 21.67° C | 44% | 1015.8 hPa | 0 mm | - | 706 W/m² | - |
| 1777751541 | 21.67° C | 51% | 1015.5 hPa | 0 mm | - | 728 W/m² | - |
| 1777751237 | 21.67° C | 51% | 1015.5 hPa | 0 mm | - | 728 W/m² | - |
| 1777750935 | 21.67° C | 42% | 1015.7 hPa | 0 mm | - | 735 W/m² | - |
| 1777750630 | 21.67° C | 43% | 1015.8 hPa | 0 mm | - | 740 W/m² | - |
| 1777750328 | 21.67° C | 43% | 1015.9 hPa | 0 mm | - | 747 W/m² | - |
| 1777750023 | 21.67° C | 43% | 1015.8 hPa | 0 mm | - | 753 W/m² | - |
| 1777749721 | 21.11° C | 43% | 1015.8 hPa | 0 mm | - | 758 W/m² | - |
| 1777749417 | 21.11° C | 44% | 1015.9 hPa | 0 mm | - | 765 W/m² | - |
| 1777749115 | 21.67° C | 44% | 1015.8 hPa | 0 mm | - | 770 W/m² | - |
| 1777748812 | 21.67° C | 49% | 1015.7 hPa | 0 mm | - | 774 W/m² | - |
| 1777748510 | 21.67° C | 44% | 1015.9 hPa | 0 mm | - | 786 W/m² | - |
| 1777748210 | 21.67° C | 44% | 1015.9 hPa | 0 mm | - | 786 W/m² | - |
| 1777747907 | 21.11° C | 45% | 1015.9 hPa | 0 mm | - | 786 W/m² | - |
| 1777747603 | 21.11° C | 47% | 1016.1 hPa | 0 mm | - | 791 W/m² | - |
| 1777747298 | 21.67° C | 44% | 1015.8 hPa | 0 mm | - | 793 W/m² | - |
| 1777746995 | 21.67° C | 45% | 1016.1 hPa | 0 mm | - | 798 W/m² | - |
| 1777746691 | 22.22° C | 49% | 1016.1 hPa | 0 mm | - | 799 W/m² | - |
* Rain latest hour (hover to see other rain measurements)
** Current wind speed in m/s (hover to see current wind gust speed)